"Period start","avg(HW err(1)/warn(2) (#))","avg(Visibility (m))","avg(Weather code (#))","avg(Precip intensity (mm/h))","min(HW err(1)/warn(2) (#))","max(HW err(1)/warn(2) (#))","std(HW err(1)/warn(2) (#))","med(HW err(1)/warn(2) (#))","min(Visibility (m))","max(Visibility (m))","std(Visibility (m))","med(Visibility (m))","min(Weather code (#))","max(Weather code (#))","std(Weather code (#))","med(Weather code (#))","min(Precip intensity (mm/h))","max(Precip intensity (mm/h))","std(Precip intensity (mm/h))","med(Precip intensity (mm/h))"
2014-04-08 00:00:00,2,7369,10,0.00,2,2,0,2,6465,9102,802,7137,10,10,0,10,0.00,0.00,0.00,0.00
2014-04-08 00:10:00,2,4845,49,0.03,2,2,0,2,3216,6793,1034,4572,10,77,32,71,0.00,0.10,0.03,0.00
2014-04-08 00:20:00,2,5188,77,0.01,2,2,0,2,3658,6019,661,5186,77,77,0,77,0.00,0.05,0.02,0.00
2014-04-08 00:30:00,2,13361,37,0.01,2,2,0,2,5134,23843,6489,11481,10,77,33,10,0.00,0.05,0.02,0.00
2014-04-08 00:40:00,2,34610,3,0.00,2,2,0,2,15799,49654,8860,35304,0,10,5,0,0.00,0.00,0.00,0.00
2014-04-08 00:50:00,2,35238,0,0.00,2,2,0,2,27622,46722,5891,34356,0,0,0,0,0.00,0.00,0.00,0.00
2014-04-08 01:00:00,2,33576,0,0.00,2,2,0,2,26932,47041,6453,30658,0,0,0,0,0.00,0.00,0.00,0.00
2014-04-08 01:10:00,2,26501,0,0.00,2,2,0,2,19700,31539,3594,26526,0,0,0,0,0.00,0.00,0.00,0.00
2014-04-08 01:20:00,2,38183,0,0.00,2,2,0,2,30298,50000,5652,38282,0,0,0,0,0.00,0.00,0.00,0.00
2014-04-08 01:30:00,2,31657,0,0.00,2,2,0,2,19566,43594,8964,34983,0,0,0,0,0.00,0.00,0.00,0.00
2014-04-08 01:40:00,2,28294,0,0.00,2,2,0,2,21471,35990,4399,27436,0,0,0,0,0.00,0.00,0.00,0.00
2014-04-08 01:50:00,2,30543,0,0.00,2,2,0,2,21718,43286,6074,30448,0,0,0,0,0.00,0.00,0.00,0.00
2014-04-08 02:00:00,2,35201,0,0.00,2,2,0,2,16414,49987,9270,37999,0,0,0,0,0.00,0.00,0.00,0.00
2014-04-08 02:10:00,2,35526,0,0.00,2,2,0,2,22546,47487,6006,36930,0,0,0,0,0.00,0.00,0.00,0.00
2014-04-08 02:20:00,2,35863,0,0.00,2,2,0,2,28110,49238,7855,31794,0,0,0,0,0.00,0.00,0.00,0.00
2014-04-08 02:30:00,2,28587,0,0.00,2,2,0,2,17998,38317,6220,29910,0,0,0,0,0.00,0.00,0.00,0.00
2014-04-08 02:40:00,2,25808,0,0.00,2,2,0,2,15514,40626,8045,22033,0,0,0,0,0.00,0.00,0.00,0.00
2014-04-08 02:50:00,2,31529,0,0.00,2,2,0,2,24915,41824,5044,31182,0,0,0,0,0.00,0.00,0.00,0.00
2014-04-08 03:00:00,2,28922,0,0.00,2,2,0,2,13561,40556,8289,30784,0,0,0,0,0.00,0.00,0.00,0.00
2014-04-08 03:10:00,2,24228,0,0.00,2,2,0,2,11934,34526,7362,22932,0,0,0,0,0.00,0.00,0.00,0.00
2014-04-08 03:20:00,2,19321,0,0.00,2,2,0,2,10649,31208,6264,20312,0,0,0,0,0.00,0.00,0.00,0.00
2014-04-08 03:30:00,2,14394,0,0.00,2,2,0,2,9596,22608,3356,13844,0,0,0,0,0.00,0.00,0.00,0.00
2014-04-08 03:40:00,2,17073,0,0.00,2,2,0,2,8349,30720,5977,16438,0,0,0,0,0.00,0.00,0.00,0.00
2014-04-08 03:50:00,2,35021,0,0.00,2,2,0,2,24454,50000,7985,33852,0,0,0,0,0.00,0.00,0.00,0.00
2014-04-08 04:00:00,2,33977,0,0.00,2,2,0,2,18490,50000,9912,32625,0,0,0,0,0.00,0.00,0.00,0.00
2014-04-08 04:10:00,2,38299,0,0.00,2,2,0,2,13484,50000,10546,39674,0,0,0,0,0.00,0.00,0.00,0.00
2014-04-08 04:20:00,2,40105,0,0.00,2,2,0,2,29010,50000,6995,38570,0,0,0,0,0.00,0.00,0.00,0.00
2014-04-08 04:30:00,2,32090,0,0.00,2,2,0,2,19600,48776,8465,31083,0,0,0,0,0.00,0.00,0.00,0.00
2014-04-08 04:40:00,2,25961,0,0.00,2,2,0,2,20287,34211,4550,25558,0,0,0,0,0.00,0.00,0.00,0.00
2014-04-08 04:50:00,2,28904,0,0.00,2,2,0,2,21210,46065,7406,26424,0,0,0,0,0.00,0.00,0.00,0.00
2014-04-08 05:00:00,2,34385,0,0.00,2,2,0,2,21583,49619,9365,35358,0,0,0,0,0.00,0.00,0.00,0.00
2014-04-08 05:10:00,2,22213,0,0.00,2,2,0,2,11437,32829,6440,21290,0,0,0,0,0.00,0.00,0.00,0.00
2014-04-08 05:20:00,2,32296,0,0.00,2,2,0,2,14864,50000,13645,39424,0,0,0,0,0.00,0.00,0.00,0.00
2014-04-08 05:30:00,2,42757,0,0.00,2,2,0,2,23204,50000,8695,45718,0,0,0,0,0.00,0.00,0.00,0.00
2014-04-08 05:40:00,2,34621,0,0.00,2,2,0,2,16813,50000,9420,36864,0,0,0,0,0.00,0.00,0.00,0.00
2014-04-08 05:50:00,2,28860,0,0.00,2,2,0,2,16096,50000,11313,24260,0,0,0,0,0.00,0.00,0.00,0.00
2014-04-08 06:00:00,2,25634,0,0.00,2,2,0,2,20811,33908,3639,24842,0,0,0,0,0.00,0.00,0.00,0.00
2014-04-08 06:10:00,2,36005,0,0.00,2,2,0,2,22397,50000,6933,37520,0,0,0,0,0.00,0.00,0.00,0.00
2014-04-08 06:20:00,2,31069,0,0.00,2,2,0,2,21846,48397,8280,29236,0,0,0,0,0.00,0.00,0.00,0.00
2014-04-08 06:30:00,2,30912,0,0.00,2,2,0,2,16861,50000,10732,25867,0,0,0,0,0.00,0.00,0.00,0.00
2014-04-08 06:40:00,2,36529,0,0.00,2,2,0,2,25272,50000,8005,36509,0,0,0,0,0.00,0.00,0.00,0.00
2014-04-08 06:50:00,2,36300,0,0.00,2,2,0,2,22971,50000,7345,36624,0,0,0,0,0.00,0.00,0.00,0.00
2014-04-08 07:00:00,2,33772,0,0.00,2,2,0,2,16603,50000,12022,32410,0,0,0,0,0.00,0.00,0.00,0.00
2014-04-08 07:10:00,2,36054,0,0.00,2,2,0,2,19844,49265,9285,38518,0,0,0,0,0.00,0.00,0.00,0.00
2014-04-08 07:20:00,2,28277,0,0.00,2,2,0,2,14867,36007,6255,29307,0,0,0,0,0.00,0.00,0.00,0.00
2014-04-08 07:30:00,2,28872,0,0.00,2,2,0,2,21638,36046,4957,27644,0,0,0,0,0.00,0.00,0.00,0.00
2014-04-08 07:40:00,2,36199,0,0.00,2,2,0,2,22110,48310,9998,37120,0,0,0,0,0.00,0.00,0.00,0.00
2014-04-08 07:50:00,2,41036,0,0.00,2,2,0,2,30944,47456,5866,43446,0,0,0,0,0.00,0.00,0.00,0.00
2014-04-08 08:00:00,2,40867,0,0.00,2,2,0,2,22561,50000,10167,46166,0,0,0,0,0.00,0.00,0.00,0.00
2014-04-08 08:10:00,2,38089,0,0.00,2,2,0,2,30794,46225,4528,37486,0,0,0,0,0.00,0.00,0.00,0.00
2014-04-08 08:20:00,2,36704,0,0.00,2,2,0,2,29288,41571,4199,38132,0,0,0,0,0.00,0.00,0.00,0.00
2014-04-08 08:30:00,2,42300,0,0.00,2,2,0,2,31686,50000,6500,41908,0,0,0,0,0.00,0.00,0.00,0.00
2014-04-08 08:40:00,2,41957,0,0.00,2,2,0,2,31168,50000,5733,42488,0,0,0,0,0.00,0.00,0.00,0.00
2014-04-08 08:50:00,2,41346,0,0.00,2,2,0,2,30042,49969,5313,41910,0,0,0,0,0.00,0.00,0.00,0.00
2014-04-08 09:00:00,2,47550,0,0.00,2,2,0,2,39303,50000,3656,49733,0,0,0,0,0.00,0.00,0.00,0.00
2014-04-08 09:10:00,2,44644,0,0.00,2,2,0,2,39558,50000,3375,44030,0,0,0,0,0.00,0.00,0.00,0.00
2014-04-08 09:20:00,2,47022,0,0.00,2,2,0,2,41602,50000,2791,46920,0,0,0,0,0.00,0.00,0.00,0.00
2014-04-08 09:30:00,2,49079,0,0.00,2,2,0,2,45134,50000,1709,50000,0,0,0,0,0.00,0.00,0.00,0.00
2014-04-08 09:40:00,2,46392,0,0.00,2,2,0,2,41215,50000,2783,47036,0,0,0,0,0.00,0.00,0.00,0.00
2014-04-08 09:50:00,2,47699,0,0.00,2,2,0,2,38913,50000,4162,50000,0,0,0,0,0.00,0.00,0.00,0.00
2014-04-08 10:00:00,2,48867,0,0.00,2,2,0,2,43874,50000,2005,50000,0,0,0,0,0.00,0.00,0.00,0.00
2014-04-08 10:10:00,2,49668,0,0.00,2,2,0,2,46877,50000,932,50000,0,0,0,0,0.00,0.00,0.00,0.00
2014-04-08 10:20:00,2,49902,0,0.00,2,2,0,2,49147,50000,254,50000,0,0,0,0,0.00,0.00,0.00,0.00
2014-04-08 10:30:00,2,49502,0,0.00,2,2,0,2,45910,50000,1227,50000,0,0,0,0,0.00,0.00,0.00,0.00
2014-04-08 10:40:00,2,50000,0,0.00,2,2,0,2,50000,50000,0,50000,0,0,0,0,0.00,0.00,0.00,0.00
2014-04-08 10:50:00,2,49914,0,0.00,2,2,0,2,49498,50000,175,50000,0,0,0,0,0.00,0.00,0.00,0.00
2014-04-08 11:00:00,2,49948,0,0.00,2,2,0,2,49684,50000,107,50000,0,0,0,0,0.00,0.00,0.00,0.00
2014-04-08 11:10:00,2,49143,0,0.00,2,2,0,2,45375,50000,1524,50000,0,0,0,0,0.00,0.00,0.00,0.00
2014-04-08 11:20:00,2,49931,0,0.00,2,2,0,2,49311,50000,207,50000,0,0,0,0,0.00,0.00,0.00,0.00
2014-04-08 11:30:00,2,49901,0,0.00,2,2,0,2,49009,50000,297,50000,0,0,0,0,0.00,0.00,0.00,0.00
2014-04-08 11:40:00,2,50000,0,0.00,2,2,0,2,50000,50000,0,50000,0,0,0,0,0.00,0.00,0.00,0.00
2014-04-08 11:50:00,2,50000,0,0.00,2,2,0,2,50000,50000,0,50000,0,0,0,0,0.00,0.00,0.00,0.00
2014-04-08 12:00:00,2,50000,0,0.00,2,2,0,2,50000,50000,0,50000,0,0,0,0,0.00,0.00,0.00,0.00
2014-04-08 12:10:00,2,49608,0,0.00,2,2,0,2,48186,50000,711,50000,0,0,0,0,0.00,0.00,0.00,0.00
2014-04-08 12:20:00,2,49656,0,0.00,2,2,0,2,46563,50000,1031,50000,0,0,0,0,0.00,0.00,0.00,0.00
2014-04-08 12:30:00,2,49949,0,0.00,2,2,0,2,49490,50000,153,50000,0,0,0,0,0.00,0.00,0.00,0.00
2014-04-08 12:40:00,2,49961,0,0.00,2,2,0,2,49610,50000,117,50000,0,0,0,0,0.00,0.00,0.00,0.00
2014-04-08 12:50:00,2,49463,0,0.00,2,2,0,2,47642,50000,799,50000,0,0,0,0,0.00,0.00,0.00,0.00
2014-04-08 13:00:00,2,49564,0,0.00,2,2,0,2,47781,50000,816,50000,0,0,0,0,0.00,0.00,0.00,0.00
2014-04-08 13:10:00,2,49883,0,0.00,2,2,0,2,48857,50000,342,50000,0,0,0,0,0.00,0.00,0.00,0.00
2014-04-08 13:20:00,2,50000,0,0.00,2,2,0,2,50000,50000,0,50000,0,0,0,0,0.00,0.00,0.00,0.00
2014-04-08 13:30:00,2,50000,0,0.00,2,2,0,2,50000,50000,0,50000,0,0,0,0,0.00,0.00,0.00,0.00
2014-04-08 13:40:00,2,48869,0,0.00,2,2,0,2,43605,50000,1885,49611,0,0,0,0,0.00,0.00,0.00,0.00
2014-04-08 13:50:00,2,45215,0,0.00,2,2,0,2,37205,50000,4990,48390,0,0,0,0,0.00,0.00,0.00,0.00
2014-04-08 14:00:00,2,27462,0,0.00,2,2,0,2,16914,39912,7446,26016,0,0,0,0,0.00,0.00,0.00,0.00
2014-04-08 14:10:00,2,16562,0,0.00,2,2,0,2,11947,23370,3832,16073,0,0,0,0,0.00,0.00,0.00,0.00
2014-04-08 14:20:00,2,9604,0,0.00,2,2,0,2,7004,12245,1608,10036,0,0,0,0,0.00,0.00,0.00,0.00
2014-04-08 14:30:00,2,7199,8,0.00,2,2,0,2,3491,9215,1627,7520,0,10,4,10,0.00,0.00,0.00,0.00
2014-04-08 14:40:00,2,19577,3,0.00,2,2,0,2,8887,23942,4073,20080,0,10,5,0,0.00,0.00,0.00,0.00
2014-04-08 14:50:00,2,14122,37,0.02,2,2,0,2,10838,17518,2197,13568,0,77,37,36,0.00,0.10,0.03,0.00
2014-04-08 15:00:00,2,17965,73,0.04,2,2,0,2,11236,30046,6803,15030,71,77,3,71,0.00,0.15,0.04,0.05
2014-04-08 15:10:00,2,30626,54,0.01,2,2,0,2,25808,35740,3120,29713,0,77,35,77,0.00,0.05,0.02,0.00
2014-04-08 15:20:00,2,29485,22,0.00,2,2,0,2,18653,41633,8753,27931,0,77,33,0,0.00,0.00,0.00,0.00
2014-04-08 15:30:00,2,18248,68,0.03,2,2,0,2,10441,25515,4389,17326,0,77,23,77,0.00,0.05,0.03,0.03
2014-04-08 15:40:00,2,30886,0,0.00,2,2,0,2,14293,39607,8113,34970,0,0,0,0,0.00,0.00,0.00,0.00
2014-04-08 15:50:00,2,24731,0,0.00,2,2,0,2,16338,33227,5293,24335,0,0,0,0,0.00,0.00,0.00,0.00
2014-04-08 16:00:00,2,13869,0,0.00,2,2,0,2,7897,20096,3301,13190,0,0,0,0,0.00,0.00,0.00,0.00
2014-04-08 16:10:00,2,9832,0,0.00,2,2,0,2,6480,14054,2617,9336,0,0,0,0,0.00,0.00,0.00,0.00
2014-04-08 16:20:00,2,11938,0,0.00,2,2,0,2,6005,19505,3921,11497,0,0,0,0,0.00,0.00,0.00,0.00
2014-04-08 16:30:00,2,5895,8,0.00,2,2,0,2,3435,8661,1735,5320,0,10,4,10,0.00,0.00,0.00,0.00
2014-04-08 16:40:00,2,4302,49,0.03,2,2,0,2,1820,7823,1695,4433,10,77,32,71,0.00,0.15,0.05,0.00
2014-04-08 16:50:00,2,3368,76,0.08,2,2,0,2,2247,5010,905,2943,71,77,2,77,0.00,0.25,0.08,0.08
2014-04-08 17:00:00,2,4744,54,0.03,2,2,0,2,2509,7132,1078,4661,10,77,30,74,0.00,0.10,0.03,0.00
2014-04-08 17:10:00,2,3410,61,0.09,2,2,0,2,1766,5081,1181,3062,10,77,26,71,0.00,0.30,0.09,0.08
2014-04-08 17:20:00,2,4726,66,0.03,2,2,0,2,3237,6612,960,4545,10,77,21,77,0.00,0.10,0.04,0.00
2014-04-08 17:30:00,2,6794,10,0.00,2,2,0,2,4294,10346,1930,7052,10,10,0,10,0.00,0.00,0.00,0.00
2014-04-08 17:40:00,2,7205,10,0.00,2,2,0,2,5072,9136,1244,7372,10,10,0,10,0.00,0.00,0.00,0.00
2014-04-08 17:50:00,2,7625,10,0.00,2,2,0,2,4713,10353,1583,8173,10,10,0,10,0.00,0.00,0.00,0.00
2014-04-08 18:00:00,2,3823,62,0.02,2,2,0,2,2409,5461,1225,3747,10,77,26,77,0.00,0.10,0.03,0.00
2014-04-08 18:10:00,2,34439,29,0.00,2,2,0,2,8280,50000,14518,42396,0,77,31,10,0.00,0.00,0.00,0.00
2014-04-08 18:20:00,2,42305,0,0.00,2,2,0,2,25909,50000,8850,45129,0,0,0,0,0.00,0.00,0.00,0.00
2014-04-08 18:30:00,2,48461,0,0.00,2,2,0,2,39943,50000,2972,50000,0,0,0,0,0.00,0.00,0.00,0.00
2014-04-08 18:40:00,2,34391,0,0.00,2,2,0,2,11596,48519,12705,40262,0,0,0,0,0.00,0.00,0.00,0.00
2014-04-08 18:50:00,2,10864,0,0.00,2,2,0,2,6610,22121,5434,8034,0,0,0,0,0.00,0.00,0.00,0.00
2014-04-08 19:00:00,2,4313,47,0.01,2,2,0,2,2886,7152,1389,3968,10,77,31,62,0.00,0.05,0.02,0.00
2014-04-08 19:10:00,2,3877,32,0.00,2,2,0,2,2962,4737,502,3710,10,54,22,32,0.00,0.00,0.00,0.00
2014-04-08 19:20:00,2,4591,10,0.00,2,2,0,2,2827,6188,1140,4837,10,10,0,10,0.00,0.00,0.00,0.00
2014-04-08 19:30:00,2,3709,49,0.01,2,2,0,2,3031,4587,495,3618,10,77,27,54,0.00,0.05,0.02,0.00
2014-04-08 19:40:00,2,3850,34,0.04,2,2,0,2,2442,5551,943,3718,10,71,24,32,0.00,0.20,0.06,0.00
2014-04-08 19:50:00,2,4840,10,0.00,2,2,0,2,3260,6590,1142,4922,10,10,0,10,0.00,0.00,0.00,0.00
2014-04-08 20:00:00,2,9022,10,0.00,2,2,0,2,7001,11203,1411,8776,10,10,0,10,0.00,0.00,0.00,0.00
2014-04-08 20:10:00,2,11103,10,0.00,2,2,0,2,9679,14611,1267,10884,10,10,0,10,0.00,0.00,0.00,0.00
2014-04-08 20:20:00,2,13690,2,0.00,2,2,0,2,9695,20636,3153,12922,0,10,4,0,0.00,0.00,0.00,0.00
2014-04-08 20:30:00,2,19854,0,0.00,2,2,0,2,15729,23851,2828,19702,0,0,0,0,0.00,0.00,0.00,0.00
2014-04-08 20:40:00,2,13594,0,0.00,2,2,0,2,9454,21905,3512,12987,0,0,0,0,0.00,0.00,0.00,0.00
2014-04-08 20:50:00,2,17757,0,0.00,2,2,0,2,10219,25099,5391,15603,0,0,0,0,0.00,0.00,0.00,0.00
2014-04-08 21:00:00,2,16145,0,0.00,2,2,0,2,10261,19500,2916,16693,0,0,0,0,0.00,0.00,0.00,0.00
2014-04-08 21:10:00,2,15247,0,0.00,2,2,0,2,9563,19392,2793,15886,0,0,0,0,0.00,0.00,0.00,0.00
2014-04-08 21:20:00,2,15440,0,0.00,2,2,0,2,4689,24800,7356,16042,0,0,0,0,0.00,0.00,0.00,0.00
2014-04-08 21:30:00,2,4162,9,0.00,2,2,0,2,2090,5686,1031,4456,0,10,3,10,0.00,0.00,0.00,0.00
2014-04-08 21:40:00,2,4655,10,0.00,2,2,0,2,2966,7782,1369,4566,10,10,0,10,0.00,0.00,0.00,0.00
2014-04-08 21:50:00,2,3745,10,0.00,2,2,0,2,2705,5474,958,3518,10,10,0,10,0.00,0.00,0.00,0.00
2014-04-08 22:00:00,2,10831,10,0.00,2,2,0,2,6214,19655,3690,9863,10,10,0,10,0.00,0.00,0.00,0.00
2014-04-08 22:10:00,2,28581,3,0.00,2,2,0,2,17404,38333,6684,30154,0,10,5,0,0.00,0.00,0.00,0.00
2014-04-08 22:20:00,2,15747,0,0.00,2,2,0,2,10475,27538,4665,15063,0,0,0,0,0.00,0.00,0.00,0.00
2014-04-08 22:30:00,2,31141,0,0.00,2,2,0,2,12018,37747,7410,33390,0,0,0,0,0.00,0.00,0.00,0.00
2014-04-08 22:40:00,2,19522,0,0.00,2,2,0,2,9200,27128,5369,19988,0,0,0,0,0.00,0.00,0.00,0.00
2014-04-08 22:50:00,2,16832,0,0.00,2,2,0,2,5847,27751,6459,18162,0,0,0,0,0.00,0.00,0.00,0.00
2014-04-08 23:00:00,2,14051,0,0.00,2,2,0,2,9772,18315,2556,13918,0,0,0,0,0.00,0.00,0.00,0.00
2014-04-08 23:10:00,2,9272,0,0.00,2,2,0,2,5580,12321,1953,9538,0,0,0,0,0.00,0.00,0.00,0.00
2014-04-08 23:20:00,2,6095,9,0.00,2,2,0,2,2858,9637,2000,5936,0,10,3,10,0.00,0.00,0.00,0.00
2014-04-08 23:30:00,2,11873,10,0.00,2,2,0,2,5555,15502,2999,12080,10,10,0,10,0.00,0.00,0.00,0.00
2014-04-08 23:40:00,2,4650,8,0.00,2,2,0,2,1406,9098,1944,4727,0,10,4,10,0.00,0.00,0.00,0.00
2014-04-08 23:50:00,2,2773,32,0.03,2,2,0,2,2098,3659,464,2778,10,41,14,41,0.00,0.10,0.03,0.00
